Regional Weather Roundup
Issued by NWS

Home | Current Version | Previous Version | Text Only | Print | Product List | Glossary Off
Versions: 1 2 3 4 5 6 7 8 9 10 11 12 13 14 15 16 17 18 19 20 21 22 23 24 25 26 27 28 29 30 31 32 33 34 35 36 37 38 39 40 41 42 43 44 45 46 47 48 49 50

000
ASUS43 KOAX 130510
RWRNE

WEATHER ROUNDUP FOR NEBRASKA
NATIONAL WEATHER SERVICE OMAHA NE
1100 PM CST TUE DEC 12 2017

NOTES: SATELLITE DATA IS BEING USED TO AUGMENT CLOUD COVER ABOVE
       12000 FEET.
       "FAIR" INDICATES FEW OR NO CLOUDS BELOW 12,000 FEET WITH NO
       SIGNIFICANT WEATHER AND/OR OBSTRUCTIONS TO VISIBILITY.


NEZ001>004-019>022-054>056-130600-
NEBRASKA PANHANDLE

CITY           SKY/WX    TMP DP  RH WIND       PRES   REMARKS
SCOTTSBLUFF    CLOUDY    32  14  47 NW8       30.01R WCI  25
ALLIANCE       CLOUDY    30  16  56 W13       29.95F WCI  20
CHADRON        CLOUDY    42  19  39 W14       29.94F
GORDON         CLOUDY    46  21  37 W16G23    29.89S
KIMBALL        CLEAR     44   9  24 W21       30.02F
SIDNEY         CLOUDY    40  10  29 W13       30.00R WCI  32
$$

NEZ057>060-069>072-079>082-130600-
SOUTHWEST NEBRASKA

CITY           SKY/WX    TMP DP  RH WIND       PRES   REMARKS
NORTH PLATTE   CLEAR     27  19  72 NW7       29.88F WCI  19
IMPERIAL       CLOUDY    40  15  36 W9        29.94F WCI  34
LEXINGTON      CLOUDY    33  21  61 NW10      29.85F WCI  24
MCCOOK         CLEAR     34  19  54 W10       29.90F WCI  26
OGALLALA       CLEAR     36  16  43 W7        29.94S WCI  30
$$

NEZ005>010-023>029-035>040-094-130600-
NORTH CENTRAL NEBRASKA

CITY           SKY/WX    TMP DP  RH WIND       PRES   REMARKS
VALENTINE      CLOUDY    32  20  61 W7        29.81F WCI  26
AINSWORTH      CLOUDY    43  24  46 W13       29.78F
BROKEN BOW     CLEAR     45  21  38 W12       29.82F
O`NEILL        CLOUDY    40  24  51 W12       29.75F WCI  34
ORD            CLOUDY    30  18  60 SW3       29.78F
THEDFORD       CLEAR     42  21  43 W10       29.85F
$$

NEZ041-046>049-061>064-073>077-083>087-130600-
SOUTH CENTRAL NEBRASKA

CITY           SKY/WX    TMP DP  RH WIND       PRES   REMARKS
GRAND ISLAND   CLEAR     40  21  46 SW13      29.82F WCI  32
AURORA         CLEAR     40  20  45 SW15      29.81F WCI  31
HASTINGS       CLEAR     39  19  44 SW6       29.83F WCI  35
HEBRON         CLEAR     40  24  53 SW5       29.86F
HOLDREGE       CLOUDY    45  22  40 W12       29.85F
KEARNEY        CLEAR     40  20  44 W6        29.84F
YORK           CLEAR     36  23  60 CALM      29.81F
$$

NEZ011>018-030>034-042>045-130600-
NORTHEAST NEBRASKA

CITY           SKY/WX    TMP DP  RH WIND       PRES   REMARKS
NORFOLK        CLEAR     38  20  48 SW10      29.73F WCI  31
ALBION         CLEAR     43  22  43 W7        29.76F
BLAIR          CLEAR     38  26  62 SW12      29.78F WCI  30
COLUMBUS       CLEAR     39  21  48 SW10      29.79F WCI  32
FREMONT        CLEAR     38  23  54 SW7       29.79F WCI  33
TEKAMAH        CLEAR     29  20  69 S9        29.77F WCI  20
WAYNE          CLEAR     40  16  38 SW10      29.72F WCI  34
$$

NEZ050>053-065>068-078-088>093-130600-
SOUTHEAST NEBRASKA

CITY           SKY/WX    TMP DP  RH WIND       PRES   REMARKS
LINCOLN        CLEAR     34  24  67 SE5       29.83F WCI  30
OMAHA EPPLEY   CLEAR     30  23  75 SE9       29.81F WCI  22
BEATRICE       CLEAR     35  25  68 SE6       29.85F WCI  30
FALLS CITY     CLOUDY    31  24  75 S6        29.86F WCI  25
NEBRASKA CITY  CLEAR     35  27  73 SW15      29.82F WCI  26
PLATTSMOUTH    CLEAR     37  27  67 S12       29.80F WCI  29
$$

NEZ044-045-051>053-067-130600-
OMAHA AREA

CITY           SKY/WX    TMP DP  RH WIND       PRES   REMARKS
OMAHA EPPLEY   CLEAR     30  23  75 SE9       29.81F WCI  22
BLAIR          CLEAR     38  26  62 SW12      29.78F WCI  30
FREMONT        CLEAR     38  23  54 SW7       29.79F WCI  33
MILLARD        CLEAR     31  25  78 CALM      29.81F
OFFUTT AFB     CLEAR     28  22  79 E5        29.81F WCI  22
PLATTSMOUTH    CLEAR     37  27  67 S12       29.80F WCI  29
WAHOO          FAIR      36  24  59 SW8       29.80F WCI  30
$$




USA.gov is the U.S. government's official web portal to all federal, state and local government web resources and services.